Location: *
(53.9450°S, 136.6720°W)
Time: 10:51:01
(UTC+00:00)

Daily predictions for brighter satellites

Satellite Brightness Start Highest point End
(mag) Time Altitude Azimuth Time Altitude Azimuth Time Altitude Azimuth
Meteor 2-20 Rocket 4.4 12:03:33 37° NNW 12:06:13 87° WSW 12:12:29 10° SSE
Nadezhda 4 Rocket 3.9 12:04:21 44° NW 12:06:21 69° WSW 12:12:37 10° S
NOSS 3-4 (A) 3.9 12:06:57 38° NW 12:10:23 83° SW 12:17:56 10° SE
NOSS 0 Rocket 4.4 12:07:15 28° N 12:10:24 57° ENE 12:16:31 10° SE
NOSS 3-4 (C) 3.9 12:07:03 38° NW 12:10:29 83° SW 12:18:02 10° SE
Meteor 1-19 Rocket 4.2 12:07:05 10° SSW 12:12:59 74° W 12:17:21 19° N
COSMOS 2455 2.9 12:09:31 10° SW 12:15:27 56° WNW 12:21:19 10° NNE
Cosmos 2237 4.5 12:14:23 41° W 12:16:02 55° SW 12:21:43 10° SSE
Cosmos 1975 Rocket 4.3 12:12:05 10° SSW 12:14:56 28° WSW 12:14:56 28° WSW
CZ-2D R/B 4.3 12:18:10 11° WSW 12:18:10 11° WSW 12:18:51 10° SW
Cosmos 1782 Rocket 3.8 12:16:20 51° W 12:16:32 51° WSW 12:20:53 10° S
Sich 1 Rocket 4.3 12:17:27 37° WSW 12:17:27 37° WSW 12:21:34 10° S
Cosmos 2322 Rocket 3.7 12:15:26 20° WSW 12:17:40 26° SSW 12:22:26 10° SSE
SL-24 DEB 4.2 12:15:12 27° N 12:17:49 87° E 12:22:36 10° S
PAYLOAD B 4.1 12:14:59 18° N 12:19:16 71° WNW 12:24:56 10° SSW
ASTEX 1 3.3 12:18:05 26° N 12:20:58 82° W 12:26:07 10° S
Cosmos 2360 Rocket 3.1 12:23:24 29° W 12:25:19 37° SW 12:30:40 10° SSE
Cosmos 2278 Rocket 2.5 12:21:16 10° SW 12:26:36 41° WNW 12:27:52 36° NW
Cosmos 1980 Rocket 4.4 12:24:53 10° SW 12:28:31 17° SSW 12:32:08 10° SSE
Okean 1 Rocket 4.4 12:26:27 10° NNE 12:30:32 39° E 12:34:40 10° SSE
Okean O Rocket 1.7 12:29:51 39° NNW 12:31:13 55° W 12:35:43 10° SSW
CZ-4B R/B 3.6 12:32:22 34° WSW 12:32:22 34° WSW 12:35:00 10° SSW
Cosmos 2333 4.4 12:31:22 35° WNW 12:33:44 59° SW 12:39:31 10° SSE
Molniya-3 3.8 12:37:28 53° NNE 12:37:28 53° NNE 12:41:45 10° NE
Cosmos 1536 Rocket 3.7 12:37:33 10° SSW 12:41:53 49° W 12:43:30 32° NNW
Cosmos 1992 Rocket 4.4 12:39:14 17° N 12:43:11 63° ENE 12:48:26 10° SSE
CZ-4B R/B 3.3 12:38:14 10° N 12:43:41 54° W 12:49:20 10° SSW
Aureole 2 Rocket 3.9 12:46:35 28° WSW 12:47:27 31° SW 12:51:10 10° SSE
COSMOS 2428 3.2 12:46:39 28° WNW 12:49:22 47° SW 12:54:58 10° SSE
Cosmos 1602 4.1 12:48:38 38° WNW 12:49:34 46° WSW 12:53:25 10° S
UNK 3.7 12:45:06 10° SSE 12:49:47 72° WSW 12:52:35 24° NNW
Feng Yun 1-1 Rocket 4.4 12:45:08 10° NNE 12:50:57 87° ESE 12:56:58 10° SSW
Okean 2 3.6 12:47:03 10° S 12:51:18 76° ESE 12:55:28 10° NNE
ADEOS II 3.0 12:50:59 27° WNW 12:51:32 27° W 12:56:05 10° SW
CZ-4B R/B 4.1 12:47:08 10° N 12:51:40 73° WNW 12:56:18 10° SSW
IRS-1C Rocket 4.3 12:47:49 10° N 12:52:58 49° W 12:58:11 10° SSW
SJ-6F 4.3 12:51:39 10° N 12:55:47 77° WNW 12:59:59 10° SSW
Cosmos 2333 Rocket 2.3 12:52:40 26° NW 12:56:04 67° SW 13:01:54 10° SSE
Cosmos 2297 3.8 12:51:00 10° SW 12:56:33 51° WNW 13:02:00 10° N
PSLV R/B 4.4 12:56:11 29° WNW 12:56:35 29° W 13:00:29 10° SSW
SL-16 R/B 4.1 12:53:13 11° WSW 12:56:58 19° SSW 13:01:03 10° SSE
Cosmos 2151 Rocket 3.7 12:54:57 26° NW 12:57:16 56° WSW 13:01:43 10° S
Meteor 1-11 Rocket 3.8 12:52:57 15° NNW 12:58:04 75° WSW 13:04:09 10° SSE
Cosmos 1300 Rocket 3.5 12:54:51 16° NNW 12:58:21 84° W 13:02:48 10° S
Meteor 1-23 Rocket 4.2 12:52:57 10° SSW 12:58:41 64° W 13:04:16 10° N
Cosmos 1777 Rocket 4.1 12:55:57 10° SSW 13:01:16 80° ESE 13:06:32 10° NNE
Cosmos 1025 Rocket 2.9 12:59:44 10° SSW 13:04:10 77° W 13:08:31 10° N
Cosmos 2369 Rocket 3.1 12:59:25 10° SSW 13:05:02 53° SE 13:10:38 10° NE
Cosmos 1892 Rocket 4.4 13:02:05 10° S 13:06:38 57° ESE 13:11:07 10° NNE
Lacrosse 5 2.2 13:03:32 16° WSW 13:07:19 43° NW 13:12:10 10° NNE
Gblst 52 Del rocket 4.4 13:04:31 22° WNW 13:08:20 70° N 13:14:50 10° E
Cosmos 1655 Rocket 4.0 13:05:22 10° NNW 13:11:37 69° WSW 13:17:58 10° S
Okean 1-7 Rocket 3.5 13:09:05 10° SSW 13:13:35 71° W 13:18:03 10° N
Cosmos 2026 Rocket 4.2 13:09:43 14° NW 13:14:56 52° WSW 13:21:10 10° S
Cosmos 1536 3.1 13:13:23 17° NNW 13:16:23 53° WSW 13:20:30 10° S
Cosmos 968 Rocket 3.8 13:12:55 10° SW 13:17:56 42° WNW 13:22:51 10° N
SL-16 R/B 2.6 13:13:04 10° NNW 13:18:45 68° ENE 13:24:30 10° SE
Cosmos 1553 Rocket 4.3 13:14:23 10° SSW 13:20:33 47° W 13:26:35 10° NNW
Ariane Rocket 4.5 13:15:45 10° NE 13:20:33 42° ESE 13:25:24 10° S
Cosmos 2292 4.2 13:18:11 10° SSW 13:21:36 72° W 13:24:39 10° N
Meteor 1-5 Rocket 4.2 13:16:45 10° NNW 13:22:29 75° WSW 13:28:06 10° SSE
SL-6 R/B(2) 1.5 13:22:42 23° NW 13:23:55 76° NE 13:25:39 10° SE
Cosmos 2315 Rocket 4.1 13:19:26 10° S 13:25:48 86° E 13:32:04 10° N
Meteor 1-31 Rocket 3.5 13:22:57 10° NNW 13:26:24 31° W 13:29:56 10° SSW
Cosmos 2237 Rocket 2.4 13:21:57 16° NW 13:26:33 60° SW 13:32:14 10° SSE
Cosmos 1975 3.9 13:23:18 10° N 13:27:15 48° E 13:31:15 10° SSE
Cosmos 1238 Rocket 4.2 13:23:03 10° S 13:28:42 73° ESE 13:35:11 10° NNE
IRAS Rocket 4.2 13:23:43 10° NNE 13:29:17 88° WNW 13:34:54 10° SSW
Cosmos 2219 Rocket 2.9 13:25:48 16° WNW 13:29:52 39° SW 13:35:16 10° SSE
USA 234 3.3 13:25:27 10° ENE 13:32:03 83° NNW 13:38:43 10° WSW
SL-24 R/B - RUBIN 2 3.9 13:28:33 12° NW 13:32:49 82° NE 13:38:02 10° SE
SL-16 R/B 2.9 13:29:02 10° S 13:35:06 49° WSW 13:41:04 10° NW
CSL-04 Rocket 4.4 13:30:11 10° NE 13:35:28 58° ESE 13:40:53 10° S
RESURS DK-1 4.0 13:35:40 13° W 13:38:24 22° SW 13:41:46 10° SSE
Okean-O 3.0 13:34:21 10° N 13:38:39 45° W 13:43:01 10° SSW
MSX 4.2 13:33:05 10° NNE 13:38:53 72° ESE 13:44:46 10° SSW
CZ-4 R/B 3.4 13:38:00 10° NE 13:41:31 32° ESE 13:45:03 10° S
Cosmos 1980 4.2 13:38:32 13° WNW 13:43:28 46° SW 13:49:01 10° SSE
SJ 16-02 4.4 13:43:23 10° SSE 13:44:48 11° SE 13:46:12 10° SE
IDEFIX/ARIANE 42P 2.6 13:42:36 10° N 13:47:53 75° WNW 13:53:12 10° SSW
ATLAS 2AS CENTAUR R/B 3.7 13:43:30 10° WSW 13:48:58 34° S 13:54:34 10° ESE
Cosmos 405 3.4 13:47:05 10° NW 13:50:33 44° WSW 13:54:05 10° S
Cosmos 1943 Rocket 2.6 13:47:10 10° SSW 13:52:52 68° SE 13:58:26 10° NE
USA 161 0.2 13:53:46 10° SSE 13:55:38 84° WSW 13:57:29 10° NNW
USA 229 DEB 3.8 13:49:03 10° SW 13:56:12 83° NW 14:03:06 10° NE
USA 229 3.8 13:49:08 10° SW 13:56:17 83° NW 14:03:12 10° NE
Cosmos 1437 Rocket 2.9 13:54:55 10° NNW 13:59:05 87° W 14:03:19 10° SSE
COSMOS 2455 4.4 13:57:50 10° WSW 14:00:06 12° W 14:02:22 10° WNW
NOSS 3-1 (A) 4.1 13:55:18 10° SW 14:02:18 62° SSE 14:08:22 10° ENE
Cosmos 2322 Rocket 4.4 14:00:42 10° SW 14:03:51 15° S 14:07:01 10° SSE
Cosmos 1602 Rocket 4.0 14:00:23 10° S 14:04:55 73° ESE 14:09:22 10° NNE
Cosmos 1500 3.5 14:02:26 10° NNW 14:06:15 49° WSW 14:10:08 10° S
Okean 1 Rocket 4.0 14:04:39 10° NW 14:08:33 30° WSW 14:12:29 10° S
NOSS 3-1 (C) 3.8 14:03:08 10° SW 14:10:08 77° SE 14:16:11 10° NE
CZ-2C R/B 2.6 14:05:48 10° N 14:10:51 61° W 14:16:06 10° SSW
Cosmos 2360 Rocket 4.2 14:07:25 10° WSW 14:11:03 17° SSW 14:14:42 10° SSE
